Regional Weather Roundup
Issued by NWS

Home | Current Version | Previous Version | Graphics & Text | Print | Product List | Glossary On
Versions: 1 2 3 4 5 6 7 8 9 10 11 12 13 14 15 16 17 18 19 20 21 22 23 24 25 26 27 28 29 30 31 32 33 34 35 36 37 38 39 40 41 42 43 44 45 46 47 48 49 50
000
ASUS43 KLSX 270359
RWRMO

WEATHER SUMMARY FOR MISSOURI
NATIONAL WEATHER SERVICE SPRINGFIELD MO
1100 PM CDT TUE AUG 26 2014

NOTE: "FAIR" INDICATES FEW OR NO CLOUDS BELOW 12,000 FEET WITH NO
       SIGNIFICANT WEATHER AND/OR OBSTRUCTIONS TO VISIBILITY.
       CURRENT SKY AND/OR WEATHER CONDITIONS ARE NOT AVAILABLE FOR
       CHILLICOTHE AND FARMINGTON.

MOZ001>031-035>038-043-044-053-054-270500-
...NORTHERN AND WESTERN MISSOURI...

CITY           SKY/WX    TMP DP  RH WIND       PRES   REMARKS
KANSAS CTY INT CLOUDY    80  71  74 E12       30.09R
KANSAS C DTWN  CLOUDY    81  73  76 E9        30.07R
LEE`S SUMMIT   MOCLDY    80  73  79 NE8       30.09S
ST JOSEPH      PTCLDY    74  72  93 N5        30.09S
KIRKSVILLE     PTCLDY    71  68  90 N6        30.13R

$$
MOZ066>068-077>081-088>096-101>105-270500-
...SOUTHWEST MISSOURI...

CITY           SKY/WX    TMP DP  RH WIND       PRES   REMARKS
SPRINGFIELD    PTCLDY    73  68  84 SE5       30.09S
JOPLIN         MOCLDY    76  69  79 CALM      30.09S

$$
MOZ032>034-039>042-045>050-055>058-069>072-270500-
...CENTRAL MISSOURI...

CITY           SKY/WX    TMP DP  RH WIND       PRES   REMARKS
COLUMBIA       MOCLDY    76  70  82 NE10      30.09R
JEFFERSON CITY MOCLDY    75  71  87 CALM      30.07R
ROLLA          MOCLDY    72  67  84 CALM      30.09R
SEDALIA        CLEAR     76  70  82 CALM      30.09R
OSAGE BEACH    MOCLDY    72  66  83 NE3       30.08S

$$
MOZ051-052-059>065-270500-
...EAST CENTRAL MISSOURI...

CITY           SKY/WX    TMP DP  RH WIND       PRES   REMARKS
ST LOUIS INTL  PTCLDY    83  71  67 CALM      30.08R
SPIRIT OF STL  PTCLDY    76  72  87 SE3       30.07R
ST CHARLES     MOCLDY    78  74  87 NE3       30.07R

$$
MOZ072>076-082>087-097>100-106>115-270500-
...SOUTH CENTRAL AND SOUTHEAST MISSOURI...

CITY           SKY/WX    TMP DP  RH WIND       PRES   REMARKS
CAPE GIRARDEAU CLEAR     77  73  87 CALM      30.07R
FARMINGTON     PTCLDY    79  70  73 CALM      30.13R
POPLAR BLUFF   CLEAR     76  71  85 CALM      30.05S
WEST PLAINS    CLEAR     79  68  69 CALM      30.12R

$$


USA.gov is the U.S. government's official web portal to all federal, state and local government web resources and services.